,,Stat5,,Stat1,,Stat2,,Stat3,,Stat4,,Wind1,,Wind1,
time,status,PA1M_AVG,status,PR1M_SUM,status,RH1M_AVG,status,SR1M_AVG,status,TA1M_AVG,status,W1dAve1m,status,W1sAve1m,
2003-09-01, 00:00:00,VALID,919.107,VALID,0,VALID,100,VALID,-0.0169808,VALID,18.2644,VALID,94,VALID,0.800446,
2003-09-01, 00:01:00,VALID,919.094,VALID,0,VALID,100,VALID,0,VALID,18.29,VALID,89,VALID,0.677365,
2003-09-01, 00:02:00,VALID,919.071,VALID,0,VALID,100,VALID,-0.0339617,VALID,18.1869,VALID,85,VALID,0.448317,
2003-09-01, 00:03:00,VALID,919.077,VALID,0,VALID,99.7854,VALID,0,VALID,18.0098,VALID,61,VALID,0.423077,
2003-09-01, 00:04:00,VALID,919.062,VALID,0,VALID,99.6404,VALID,-0.0509425,VALID,17.9088,VALID,59,VALID,0.578516,
2003-09-01, 00:05:00,VALID,919.086,VALID,0,VALID,99.7027,VALID,-0.0339617,VALID,17.8731,VALID,58,VALID,0.565717,
2003-09-01, 00:06:00,VALID,919.094,VALID,0,VALID,99.6404,VALID,-0.0339617,VALID,17.8445,VALID,58,VALID,0.419071,
2003-09-01, 00:07:00,VALID,919.102,VALID,0,VALID,99.5819,VALID,-0.0169808,VALID,17.799,VALID,58,VALID,0.312711,
2003-09-01, 00:08:00,VALID,919.131,VALID,0,VALID,99.5399,VALID,-0.0169808,VALID,17.7638,VALID,58,VALID,0.261502,
2003-09-01, 00:09:00,VALID,919.159,VALID,0,VALID,99.5488,VALID,-0.0169808,VALID,17.7319,VALID,58,VALID,0.11875,
2003-09-01, 00:10:00,VALID,919.173,VALID,0,VALID,99.6353,VALID,0,VALID,17.7418,VALID,58,VALID,0,
2003-09-01, 00:11:00,VALID,919.178,VALID,0,VALID,99.6887,VALID,-0.0169808,VALID,17.7476,VALID,58,VALID,0,
2003-09-01, 00:12:00,VALID,919.172,VALID,0,VALID,99.6035,VALID,-0.0679233,VALID,17.7416,VALID,58,VALID,0.00078125,
2003-09-01, 00:13:00,VALID,919.161,VALID,0,VALID,99.4967,VALID,-0.0169808,VALID,17.6996,VALID,58,VALID,0.165211,
2003-09-01, 00:14:00,VALID,919.148,VALID,0,VALID,99.5552,VALID,-0.0509425,VALID,17.6837,VALID,58,VALID,0.0852865,
2003-09-01, 00:15:00,VALID,919.14,VALID,0,VALID,99.5883,VALID,-0.0339617,VALID,17.6835,VALID,58,VALID,0.00683594,
2003-09-01, 00:16:00,VALID,919.139,VALID,0,VALID,99.7141,VALID,-0.0169808,VALID,17.6932,VALID,58,VALID,0,
2003-09-01, 00:17:00,VALID,919.128,VALID,0,VALID,99.9074,VALID,-0.0509425,VALID,17.7575,VALID,58,VALID,0.141493,
2003-09-01, 00:18:00,VALID,919.135,VALID,0,VALID,99.8349,VALID,-0.0509425,VALID,17.7741,VALID,60,VALID,0.440625,
2003-09-01, 00:19:00,VALID,919.132,VALID,0,VALID,99.9418,VALID,0,VALID,17.7993,VALID,93,VALID,0.544118,
2003-09-01, 00:20:00,VALID,919.128,VALID,0,VALID,99.9771,VALID,-0.0339617,VALID,17.8421,VALID,111,VALID,0.534071,
2003-09-01, 00:21:00,VALID,919.112,VALID,0,VALID,100,VALID,0,VALID,17.8666,VALID,111,VALID,0.366602,
2003-09-01, 00:22:00,VALID,919.103,VALID,0,VALID,99.9941,VALID,-0.0169808,VALID,17.8906,VALID,110,VALID,0.366498,
2003-09-01, 00:23:00,VALID,919.091,VALID,0,VALID,99.8286,VALID,-0.0169808,VALID,17.8421,VALID,108,VALID,0.440538,
2003-09-01, 00:24:00,VALID,919.077,VALID,0,VALID,99.7777,VALID,-0.0169808,VALID,17.7935,VALID,108,VALID,0.461914,
2003-09-01, 00:25:00,VALID,919.066,VALID,0,VALID,99.793,VALID,-0.0169808,VALID,17.7866,VALID,108,VALID,0.422794,
2003-09-01, 00:26:00,VALID,919.059,VALID,0,VALID,99.9074,VALID,-0.0339617,VALID,17.7997,VALID,107,VALID,0.503906,
2003-09-01, 00:27:00,VALID,919.057,VALID,0,VALID,99.9201,VALID,-0.0169808,VALID,17.8322,VALID,107,VALID,0.263672,
2003-09-01, 00:28:00,VALID,919.06,VALID,0,VALID,99.6811,VALID,-0.0169808,VALID,17.7803,VALID,107,VALID,0.0774357,
2003-09-01, 00:29:00,VALID,919.063,VALID,0,VALID,99.6264,VALID,-0.0339617,VALID,17.7483,VALID,107,VALID,0,
2003-09-01, 00:30:00,VALID,919.055,VALID,0,VALID,99.5616,VALID,-0.0339617,VALID,17.7126,VALID,107,VALID,0,
2003-09-01, 00:31:00,VALID,919.041,VALID,0,VALID,99.5743,VALID,-0.0509425,VALID,17.6803,VALID,107,VALID,0.00643382,
2003-09-01, 00:32:00,VALID,919.038,VALID,0,VALID,99.3492,VALID,-0.0169808,VALID,17.6549,VALID,106,VALID,0.211589,
2003-09-01, 00:33:00,VALID,919.021,VALID,0,VALID,98.9232,VALID,-0.0169808,VALID,17.5322,VALID,74,VALID,0.450781,
2003-09-01, 00:34:00,VALID,918.992,VALID,0,VALID,98.7045,VALID,-0.0169808,VALID,17.4479,VALID,56,VALID,0.513787,
2003-09-01, 00:35:00,VALID,918.978,VALID,0,VALID,98.5405,VALID,-0.0509425,VALID,17.3708,VALID,45,VALID,0.609592,
2003-09-01, 00:36:00,VALID,918.97,VALID,0,VALID,98.5837,VALID,-0.0169808,VALID,17.3355,VALID,42,VALID,0.287891,
2003-09-01, 00:37:00,VALID,918.949,VALID,0,VALID,98.7515,VALID,-0.0339617,VALID,17.3224,VALID,42,VALID,0.246783,
2003-09-01, 00:38:00,VALID,918.923,VALID,0,VALID,99.1127,VALID,-0.0509425,VALID,17.3512,VALID,42,VALID,0.177734,
2003-09-01, 00:39:00,VALID,918.917,VALID,0,VALID,99.662,VALID,-0.0339617,VALID,17.4651,VALID,43,VALID,0.324023,
2003-09-01, 00:40:00,VALID,918.905,VALID,0,VALID,99.6658,VALID,-0.0169808,VALID,17.5288,VALID,47,VALID,0.323759,
2003-09-01, 00:41:00,VALID,918.893,VALID,0,VALID,99.6328,VALID,-0.0169808,VALID,17.5511,VALID,69,VALID,0.323134,
2003-09-01, 00:42:00,VALID,918.898,VALID,0,VALID,99.6353,VALID,0,VALID,17.5673,VALID,69,VALID,0.127344,
2003-09-01, 00:43:00,VALID,918.882,VALID,0,VALID,99.5895,VALID,0,VALID,17.5707,VALID,69,VALID,0,
2003-09-01, 00:44:00,VALID,918.886,VALID,0,VALID,99.5488,VALID,0,VALID,17.5677,VALID,69,VALID,0,
2003-09-01, 00:45:00,VALID,918.883,VALID,0,VALID,99.5514,VALID,0,VALID,17.5643,VALID,69,VALID,0,
2003-09-01, 00:46:00,VALID,918.873,VALID,0,VALID,99.4662,VALID,0,VALID,17.5548,VALID,69,VALID,0,
2003-09-01, 00:47:00,VALID,918.875,VALID,0,VALID,99.3238,VALID,-0.0339617,VALID,17.5126,VALID,69,VALID,0,
2003-09-01, 00:48:00,VALID,918.866,VALID,0,VALID,99.2831,VALID,-0.0169808,VALID,17.4773,VALID,69,VALID,0.0267578,
2003-09-01, 00:49:00,VALID,918.862,VALID,0,VALID,99.2449,VALID,0,VALID,17.4416,VALID,69,VALID,0,
2003-09-01, 00:50:00,VALID,918.843,VALID,0,VALID,99.2144,VALID,0,VALID,17.4195,VALID,69,VALID,0,
2003-09-01, 00:51:00,VALID,918.815,VALID,0,VALID,99.2004,VALID,0.0169808,VALID,17.4001,VALID,69,VALID,0,
2003-09-01, 00:52:00,VALID,918.796,VALID,0,VALID,99.0822,VALID,0.0169808,VALID,17.3672,VALID,69,VALID,0,
2003-09-01, 00:53:00,VALID,918.79,VALID,0,VALID,99.0071,VALID,0,VALID,17.3256,VALID,69,VALID,0,
2003-09-01, 00:54:00,VALID,918.769,VALID,0,VALID,98.9982,VALID,0,VALID,17.2899,VALID,69,VALID,0.196094,
2003-09-01, 00:55:00,VALID,918.75,VALID,0,VALID,98.8952,VALID,0,VALID,17.2514,VALID,72,VALID,0.289063,
2003-09-01, 00:56:00,VALID,918.745,VALID,0,VALID,98.8456,VALID,-0.0679233,VALID,17.2008,VALID,80,VALID,0.338108,
2003-09-01, 00:57:00,VALID,918.748,VALID,0,VALID,99.0008,VALID,-0.0849042,VALID,17.1812,VALID,146,VALID,0.411914,
2003-09-01, 00:58:00,VALID,918.747,VALID,0,VALID,99.3161,VALID,-0.101885,VALID,17.2137,VALID,160,VALID,0.397748,
2003-09-01, 00:59:00,VALID,918.746,VALID,0,VALID,99.3416,VALID,-0.101885,VALID,17.2458,VALID,136,VALID,0.393012,
2003-09-01, 01:00:00,VALID,918.742,VALID,0,VALID,98.9766,VALID,-0.101885,VALID,17.2013,VALID,122,VALID,0.247461,
2003-09-01, 01:01:00,VALID,918.741,VALID,0,VALID,98.969,VALID,-0.0849042,VALID,17.1266,VALID,113,VALID,0.442096,
2003-09-01, 01:02:00,VALID,918.735,VALID,0,VALID,99.3543,VALID,-0.118866,VALID,17.1401,VALID,127,VALID,0.688585,
2003-09-01, 01:03:00,VALID,918.728,VALID,0,VALID,99.8248,VALID,-0.118866,VALID,17.2271,VALID,148,VALID,0.7,
2003-09-01, 01:04:00,VALID,918.712,VALID,0,VALID,99.9929,VALID,-0.101885,VALID,17.3495,VALID,146,VALID,0.878217,
2003-09-01, 01:05:00,VALID,918.697,VALID,0,VALID,100,VALID,-0.101885,VALID,17.4367,VALID,152,VALID,0.767144,
2003-09-01, 01:06:00,VALID,918.68,VALID,0,VALID,100,VALID,-0.101885,VALID,17.5079,VALID,148,VALID,0.972852,
2003-09-01, 01:07:00,VALID,918.674,VALID,0,VALID,100,VALID,-0.101885,VALID,17.582,VALID,150,VALID,0.969669,
2003-09-01, 01:08:00,VALID,918.654,VALID,0,VALID,100,VALID,-0.101885,VALID,17.656,VALID,149,VALID,0.830946,
2003-09-01, 01:09:00,VALID,918.629,VALID,0,VALID,100,VALID,-0.101885,VALID,17.689,VALID,139,VALID,0.775781,
2003-09-01, 01:10:00,VALID,918.604,VALID,0,VALID,100,VALID,-0.101885,VALID,17.7081,VALID,136,VALID,0.795956,
2003-09-01, 01:11:00,VALID,918.574,VALID,0,VALID,100,VALID,-0.0679233,VALID,17.7367,VALID,136,VALID,0.701823,
2003-09-01, 01:12:00,VALID,918.551,VALID,0,VALID,100,VALID,-0.0849042,VALID,17.7757,VALID,138,VALID,0.558984,
2003-09-01, 01:13:00,VALID,918.541,VALID,0,VALID,100,VALID,-0.0849042,VALID,17.7759,VALID,147,VALID,0.591222,
2003-09-01, 01:14:00,VALID,918.518,VALID,0,VALID,100,VALID,-0.101885,VALID,17.7363,VALID,148,VALID,0.454427,
2003-09-01, 01:15:00,VALID,918.492,VALID,0,VALID,100,VALID,-0.0849042,VALID,17.6978,VALID,137,VALID,0.428711,
2003-09-01, 01:16:00,VALID,918.471,VALID,0,VALID,100,VALID,-0.101885,VALID,17.6655,VALID,127,VALID,0.451517,
2003-09-01, 01:17:00,VALID,918.455,VALID,0,VALID,100,VALID,-0.101885,VALID,17.6495,VALID,122,VALID,0.437283,
2003-09-01, 01:18:00,VALID,918.436,VALID,0,VALID,100,VALID,-0.101885,VALID,17.6267,VALID,119,VALID,0.643945,
2003-09-01, 01:19:00,VALID,918.43,VALID,0,VALID,100,VALID,-0.0849042,VALID,17.6267,VALID,124,VALID,0.713006,
2003-09-01, 01:20:00,VALID,918.421,VALID,0,VALID,100,VALID,-0.118866,VALID,17.6143,VALID,121,VALID,0.180773,
2003-09-01, 01:21:00,VALID,918.416,VALID,0,VALID,99.8805,VALID,-0.101885,VALID,17.4558,VALID,121,VALID,0.155469,
2003-09-01, 01:22:00,VALID,918.41,VALID,0,VALID,99.9916,VALID,-0.0679233,VALID,17.4627,VALID,121,VALID,0.431066,
2003-09-01, 01:23:00,VALID,918.419,VALID,0,VALID,100,VALID,-0.0509425,VALID,17.4849,VALID,121,VALID,0.227214,
2003-09-01, 01:24:00,VALID,918.417,VALID,0,VALID,99.7192,VALID,-0.0679233,VALID,17.3463,VALID,121,VALID,0.0046875,
2003-09-01, 01:25:00,VALID,918.419,VALID,0,VALID,99.868,VALID,-0.118866,VALID,17.2914,VALID,121,VALID,0.279182,
2003-09-01, 01:26:00,VALID,918.4,VALID,0,VALID,99.9977,VALID,-0.0339617,VALID,17.3553,VALID,124,VALID,0.75651,
2003-09-01, 01:27:00,VALID,918.388,VALID,0,VALID,100,VALID,-0.0169808,VALID,17.4354,VALID,124,VALID,0.84082,
2003-09-01, 01:28:00,VALID,918.377,VALID,0,VALID,100,VALID,-0.0169808,VALID,17.4556,VALID,119,VALID,0.173024,
2003-09-01, 01:29:00,VALID,918.374,VALID,0,VALID,99.9036,VALID,0,VALID,17.3291,VALID,119,VALID,0.157986,
2003-09-01, 01:30:00,VALID,918.367,VALID,0,VALID,99.7943,VALID,-0.0169808,VALID,17.3127,VALID,120,VALID,0.400977,
2003-09-01, 01:31:00,VALID,918.366,VALID,0,VALID,99.8349,VALID,0,VALID,17.3071,VALID,126,VALID,0.373621,
2003-09-01, 01:32:00,VALID,918.377,VALID,0,VALID,99.7803,VALID,0,VALID,17.2908,VALID,127,VALID,0.146701,
2003-09-01, 01:33:00,VALID,918.377,VALID,0,VALID,99.7332,VALID,0,VALID,17.2484,VALID,132,VALID,0.417188,
2003-09-01, 01:34:00,VALID,918.377,VALID,0,VALID,99.8273,VALID,0,VALID,17.2518,VALID,139,VALID,0.571461,
2003-09-01, 01:35:00,VALID,918.378,VALID,0,VALID,99.9468,VALID,0,VALID,17.2875,VALID,141,VALID,0.441623,
2003-09-01, 01:36:00,VALID,918.371,VALID,0,VALID,99.7192,VALID,0,VALID,17.2776,VALID,141,VALID,0.181055,
2003-09-01, 01:37:00,VALID,918.366,VALID,0,VALID,99.3708,VALID,0.0169808,VALID,17.1642,VALID,117,VALID,0.328355,
2003-09-01, 01:38:00,VALID,918.355,VALID,0,VALID,99.3848,VALID,-0.0339617,VALID,17.0835,VALID,111,VALID,0.244575,
2003-09-01, 01:39:00,VALID,918.353,VALID,0,VALID,99.4611,VALID,-0.0169808,VALID,17.0681,VALID,111,VALID,0.0396484,
2003-09-01, 01:40:00,VALID,918.339,VALID,0,VALID,99.4242,VALID,0,VALID,17.0289,VALID,111,VALID,0,
2003-09-01, 01:41:00,VALID,918.333,VALID,0,VALID,99.4318,VALID,0,VALID,17.0196,VALID,111,VALID,0,
2003-09-01, 01:42:00,VALID,918.318,VALID,0,VALID,99.4522,VALID,0,VALID,16.9904,VALID,111,VALID,0.00195313,
2003-09-01, 01:43:00,VALID,918.315,VALID,0,VALID,99.5666,VALID,0,VALID,17.0003,VALID,111,VALID,0.328355,
2003-09-01, 01:44:00,VALID,918.303,VALID,0,VALID,99.7561,VALID,-0.0339617,VALID,17.013,VALID,116,VALID,0.442491,
2003-09-01, 01:45:00,VALID,918.286,VALID,0,VALID,99.943,VALID,-0.0169808,VALID,17.0844,VALID,121,VALID,0.322852,
2003-09-01, 01:46:00,VALID,918.276,VALID,0,VALID,99.6073,VALID,-0.0169808,VALID,17.0455,VALID,121,VALID,0,
2003-09-01, 01:47:00,VALID,918.269,VALID,0,VALID,98.983,VALID,0,VALID,16.8843,VALID,121,VALID,0.0483941,
2003-09-01, 01:48:00,VALID,918.258,VALID,0,VALID,98.983,VALID,0,VALID,16.784,VALID,76,VALID,0.509961,
2003-09-01, 01:49:00,VALID,918.261,VALID,0,VALID,99.0313,VALID,-0.0169808,VALID,16.7647,VALID,51,VALID,0.536535,
2003-09-01, 01:50:00,VALID,918.283,VALID,0,VALID,98.9537,VALID,0,VALID,16.7098,VALID,51,VALID,0.46072,
2003-09-01, 01:51:00,VALID,918.276,VALID,0,VALID,99.4433,VALID,0,VALID,16.7317,VALID,51,VALID,0.453516,
2003-09-01, 01:52:00,VALID,918.277,VALID,0,VALID,99.9003,VALID,0,VALID,16.8419,VALID,74,VALID,0.536765,
2003-09-01, 01:53:00,VALID,918.284,VALID,0,VALID,100,VALID,0,VALID,16.9906,VALID,78,VALID,0.49197,
2003-09-01, 01:54:00,VALID,918.284,VALID,0,VALID,100,VALID,-0.0169808,VALID,17.0519,VALID,80,VALID,0.464258,
2003-09-01, 01:55:01,VALID,918.274,VALID,0,VALID,99.9186,VALID,-0.0169808,VALID,16.991,VALID,80,VALID,0.388557,
2003-09-01, 01:56:00,VALID,918.259,VALID,0,VALID,100,VALID,0,VALID,17.0489,VALID,80,VALID,0.433377,
2003-09-01, 01:57:00,VALID,918.249,VALID,0,VALID,100,VALID,-0.0339617,VALID,17.2299,VALID,82,VALID,0.464258,
2003-09-01, 01:58:00,VALID,918.234,VALID,0,VALID,100,VALID,-0.0169808,VALID,17.3398,VALID,99,VALID,0.439798,
2003-09-01, 01:59:00,VALID,918.209,VALID,0,VALID,100,VALID,0,VALID,17.3009,VALID,99,VALID,0.242839,
2003-09-01, 02:00:01,VALID,918.184,VALID,0,VALID,100,VALID,0,VALID,17.2198,VALID,99,VALID,0.0564453,
2003-09-01, 02:01:01,VALID,918.17,VALID,0,VALID,99.957,VALID,-0.0169808,VALID,17.1718,VALID,99,VALID,0.332261,
2003-09-01, 02:02:00,VALID,918.15,VALID,0,VALID,99.9924,VALID,-0.0169808,VALID,17.1718,VALID,134,VALID,0.62283,
2003-09-01, 02:03:00,VALID,918.125,VALID,0,VALID,99.9977,VALID,-0.0339617,VALID,17.1978,VALID,140,VALID,0.585156,
2003-09-01, 02:04:01,VALID,918.122,VALID,0,VALID,99.9977,VALID,0,VALID,17.2071,VALID,140,VALID,0.298254,
2003-09-01, 02:05:00,VALID,918.114,VALID,0,VALID,99.8807,VALID,-0.0169808,VALID,17.181,VALID,140,VALID,0.0123698,
2003-09-01, 02:06:01,VALID,918.118,VALID,0,VALID,99.6785,VALID,-0.0339617,VALID,17.133,VALID,140,VALID,0.0568359,
2003-09-01, 02:07:01,VALID,918.114,VALID,0,VALID,99.5425,VALID,0,VALID,17.0618,VALID,140,VALID,0.28148,
2003-09-01, 02:08:00,VALID,918.126,VALID,0,VALID,99.601,VALID,-0.0169808,VALID,17.036,VALID,140,VALID,0.228299,
2003-09-01, 02:09:00,VALID,918.122,VALID,0,VALID,99.4764,VALID,-0.0169808,VALID,17.0041,VALID,140,VALID,0.0619141,
2003-09-01, 02:10:01,VALID,918.137,VALID,0,VALID,99.2615,VALID,-0.0169808,VALID,16.9327,VALID,124,VALID,0.409926,
2003-09-01, 02:11:01,VALID,918.129,VALID,0,VALID,99.3263,VALID,-0.0169808,VALID,16.8748,VALID,117,VALID,0.232856,
2003-09-01, 02:12:01,VALID,918.134,VALID,0,VALID,99.6022,VALID,-0.0169808,VALID,16.8845,VALID,117,VALID,0.00273437,
2003-09-01, 02:13:01,VALID,918.122,VALID,0,VALID,99.7408,VALID,0,VALID,16.9366,VALID,117,VALID,0,
2003-09-01, 02:14:01,VALID,918.102,VALID,0,VALID,99.7332,VALID,-0.0169808,VALID,16.9458,VALID,117,VALID,0,
2003-09-01, 02:15:01,VALID,918.104,VALID,0,VALID,99.7269,VALID,0,VALID,16.959,VALID,117,VALID,0,
2003-09-01, 02:16:01,VALID,918.106,VALID,0,VALID,99.6709,VALID,-0.0169808,VALID,16.9493,VALID,117,VALID,0,
2003-09-01, 02:17:01,VALID,918.106,VALID,0,VALID,99.7625,VALID,-0.0169808,VALID,16.9297,VALID,117,VALID,0.0147569,
2003-09-01, 02:18:01,VALID,918.109,VALID,0,VALID,99.868,VALID,-0.0169808,VALID,16.9523,VALID,120,VALID,0.449609,
2003-09-01, 02:19:01,VALID,918.114,VALID,0,VALID,99.9514,VALID,-0.0509425,VALID,16.9781,VALID,139,VALID,0.730009,
2003-09-01, 02:20:01,VALID,918.11,VALID,0,VALID,99.9977,VALID,-0.0169808,VALID,17.0166,VALID,146,VALID,0.747613,
2003-09-01, 02:21:01,VALID,918.101,VALID,0,VALID,100,VALID,-0.0169808,VALID,17.0493,VALID,148,VALID,0.533203,
2003-09-01, 02:22:01,VALID,918.088,VALID,0,VALID,99.9883,VALID,-0.0169808,VALID,17.0523,VALID,147,VALID,0.453355,
2003-09-01, 02:23:01,VALID,918.087,VALID,0,VALID,99.9468,VALID,-0.0169808,VALID,17.0459,VALID,147,VALID,0.484158,
2003-09-01, 02:24:01,VALID,918.087,VALID,0,VALID,99.9138,VALID,-0.0339617,VALID,17.0334,VALID,146,VALID,0.387695,
2003-09-01, 02:25:01,VALID,918.087,VALID,0,VALID,99.9163,VALID,0,VALID,17.0134,VALID,140,VALID,0.445542,
2003-09-01, 02:26:01,VALID,918.11,VALID,0,VALID,99.7052,VALID,-0.0509425,VALID,16.9753,VALID,131,VALID,0.248915,
2003-09-01, 02:27:01,VALID,918.129,VALID,0,VALID,99.6468,VALID,0,VALID,16.9168,VALID,130,VALID,0.0123047,
2003-09-01, 02:28:01,VALID,918.156,VALID,0,VALID,99.7383,VALID,-0.0169808,VALID,16.9013,VALID,130,VALID,0.0737592,
2003-09-01, 02:29:01,VALID,918.169,VALID,0,VALID,99.9463,VALID,-0.0339617,VALID,16.92,VALID,130,VALID,0.510634,
2003-09-01, 02:30:01,VALID,918.174,VALID,0,VALID,99.8807,VALID,-0.0509425,VALID,16.9327,VALID,131,VALID,0.545313,
2003-09-01, 02:31:01,VALID,918.164,VALID,0,VALID,99.9186,VALID,0,VALID,16.9361,VALID,133,VALID,0.693934,
2003-09-01, 02:32:01,VALID,918.161,VALID,0,VALID,100,VALID,-0.0339617,VALID,17.0233,VALID,135,VALID,1.02821,
2003-09-01, 02:33:01,VALID,918.163,VALID,0,VALID,100,VALID,-0.0509425,VALID,17.1074,VALID,134,VALID,0.641016,
2003-09-01, 02:34:01,VALID,918.138,VALID,0,VALID,100,VALID,-0.0169808,VALID,17.1563,VALID,128,VALID,0.721278,
2003-09-01, 02:35:00,VALID,918.128,VALID,0,VALID,100,VALID,-0.0339617,VALID,17.1559,VALID,110,VALID,0.441189,
2003-09-01, 02:36:00,VALID,918.113,VALID,0,VALID,99.9865,VALID,-0.0169808,VALID,17.0297,VALID,68,VALID,0.325195,
2003-09-01, 02:37:00,VALID,918.093,VALID,0,VALID,99.9499,VALID,0,VALID,16.9815,VALID,74,VALID,0.276654,
2003-09-01, 02:38:00,VALID,918.071,VALID,0,VALID,100,VALID,0,VALID,17.0394,VALID,79,VALID,0.358941,
2003-09-01, 02:39:00,VALID,918.068,VALID,0,VALID,100,VALID,0.0169808,VALID,17.0881,VALID,82,VALID,0.338086,
2003-09-01, 02:40:00,VALID,918.059,VALID,0,VALID,100,VALID,0,VALID,17.1132,VALID,83,VALID,0.123621,
2003-09-01, 02:41:00,VALID,918.062,VALID,0,VALID,100,VALID,0,VALID,17.0874,VALID,66,VALID,0.117839,
2003-09-01, 02:42:00,VALID,918.056,VALID,0,VALID,99.8881,VALID,0,VALID,16.997,VALID,44,VALID,0,
2003-09-01, 02:43:00,VALID,918.047,VALID,0,VALID,99.8769,VALID,-0.0339617,VALID,16.9686,VALID,44,VALID,0,
2003-09-01, 02:44:00,VALID,918.066,VALID,0,VALID,99.9672,VALID,-0.0169808,VALID,16.9714,VALID,44,VALID,0.0141059,
2003-09-01, 02:45:00,VALID,918.071,VALID,0,VALID,99.8985,VALID,0,VALID,16.9813,VALID,49,VALID,0.217187,
2003-09-01, 02:46:00,VALID,918.082,VALID,0,VALID,99.8133,VALID,-0.0169808,VALID,16.959,VALID,51,VALID,0.314568,
2003-09-01, 02:47:00,VALID,918.089,VALID,0,VALID,99.9265,VALID,0,VALID,16.9523,VALID,90,VALID,0.387587,
2003-09-01, 02:48:00,VALID,918.084,VALID,0,VALID,99.9916,VALID,-0.0169808,VALID,16.9882,VALID,90,VALID,0.37793,
2003-09-01, 02:49:00,VALID,918.075,VALID,0,VALID,99.9715,VALID,-0.0509425,VALID,16.9945,VALID,90,VALID,0.404642,
2003-09-01, 02:50:00,VALID,918.071,VALID,0,VALID,99.7434,VALID,-0.0169808,VALID,16.9626,VALID,90,VALID,0.459201,
2003-09-01, 02:51:00,VALID,918.062,VALID,0,VALID,99.6048,VALID,-0.0169808,VALID,16.8849,VALID,83,VALID,0.598437,
2003-09-01, 02:52:00,VALID,918.05,VALID,0,VALID,99.5844,VALID,0,VALID,16.827,VALID,80,VALID,0.693934,
2003-09-01, 02:53:00,VALID,918.045,VALID,0,VALID,99.7574,VALID,0,VALID,16.8494,VALID,76,VALID,0.735677,
2003-09-01, 02:54:00,VALID,918.037,VALID,0,VALID,99.9463,VALID,-0.0169808,VALID,16.9009,VALID,76,VALID,0.651758,
2003-09-01, 02:55:00,VALID,918.027,VALID,0,VALID,100,VALID,0,VALID,16.9846,VALID,76,VALID,0.665441,
2003-09-01, 02:56:00,VALID,918.027,VALID,0,VALID,100,VALID,0,VALID,17.0915,VALID,88,VALID,0.801432,
2003-09-01, 02:57:00,VALID,918.029,VALID,0,VALID,100,VALID,0,VALID,17.1688,VALID,101,VALID,0.655859,
2003-09-01, 02:58:00,VALID,918.029,VALID,0,VALID,100,VALID,0,VALID,17.1817,VALID,102,VALID,0.142004,
2003-09-01, 02:59:00,VALID,918.018,VALID,0,VALID,100,VALID,-0.0169808,VALID,17.1554,VALID,102,VALID,0.0579427,
2003-09-01, 03:00:00,VALID,918.011,VALID,0,VALID,99.821,VALID,-0.0339617,VALID,17.1169,VALID,126,VALID,0.555469,
2003-09-01, 03:01:00,VALID,917.999,VALID,0,VALID,99.6366,VALID,-0.0339617,VALID,17.0784,VALID,131,VALID,0.297564,
2003-09-01, 03:02:00,VALID,917.998,VALID,0,VALID,99.5704,VALID,-0.0339617,VALID,17.033,VALID,131,VALID,0.294922,
2003-09-01, 03:03:00,VALID,917.972,VALID,0,VALID,99.5641,VALID,-0.0169808,VALID,17.0205,VALID,131,VALID,0.12207,
2003-09-01, 03:04:00,VALID,917.981,VALID,0,VALID,99.5018,VALID,-0.0169808,VALID,16.9783,VALID,131,VALID,0.0222886,
2003-09-01, 03:05:00,VALID,917.975,VALID,0,VALID,99.498,VALID,0,VALID,16.9555,VALID,131,VALID,0.174479,
2003-09-01, 03:06:00,VALID,917.96,VALID,0,VALID,99.5768,VALID,-0.0169808,VALID,16.9716,VALID,131,VALID,0.341016,
2003-09-01, 03:07:00,VALID,917.947,VALID,0,VALID,99.531,VALID,0,VALID,16.9682,VALID,131,VALID,0.137868,
2003-09-01, 03:08:00,VALID,917.953,VALID,0,VALID,99.4191,VALID,-0.0169808,VALID,16.9456,VALID,131,VALID,0.27105,
2003-09-01, 03:09:00,VALID,917.951,VALID,0,VALID,99.6468,VALID,-0.0509425,VALID,16.9624,VALID,131,VALID,0.196875,
2003-09-01, 03:10:00,VALID,917.942,VALID,0,VALID,99.8044,VALID,-0.0339617,VALID,16.9979,VALID,131,VALID,0.344899,
2003-09-01, 03:11:00,VALID,917.938,VALID,0,VALID,99.9354,VALID,-0.0339617,VALID,17.0721,VALID,131,VALID,0.395833,
2003-09-01, 03:12:00,VALID,917.922,VALID,0,VALID,99.9163,VALID,-0.0509425,VALID,17.1107,VALID,131,VALID,0.293164,
2003-09-01, 03:13:00,VALID,917.896,VALID,0,VALID,99.8133,VALID,-0.0339617,VALID,17.1137,VALID,131,VALID,0.267004,
2003-09-01, 03:14:00,VALID,917.882,VALID,0,VALID,99.8884,VALID,-0.0169808,VALID,17.127,VALID,131,VALID,0.077474,
2003-09-01, 03:15:00,VALID,917.868,VALID,0,VALID,100,VALID,-0.0339617,VALID,17.1784,VALID,131,VALID,0.00117188,
2003-09-01, 03:16:00,VALID,917.852,VALID,0,VALID,99.9763,VALID,-0.0339617,VALID,17.2105,VALID,130,VALID,0.0257353,
2003-09-01, 03:17:00,VALID,917.848,VALID,0,VALID,99.5527,VALID,-0.0169808,VALID,17.1137,VALID,130,VALID,0.0264757,
2003-09-01, 03:18:00,VALID,917.847,VALID,0,VALID,99.3238,VALID,0,VALID,17.0269,VALID,130,VALID,0,
2003-09-01, 03:19:00,VALID,917.848,VALID,0,VALID,99.4382,VALID,-0.0169808,VALID,16.9942,VALID,130,VALID,0.0326287,
2003-09-01, 03:20:00,VALID,917.844,VALID,0,VALID,99.7497,VALID,-0.0169808,VALID,17.0491,VALID,130,VALID,0.240234,
2003-09-01, 03:21:00,VALID,917.835,VALID,0,VALID,99.7739,VALID,-0.0169808,VALID,17.1141,VALID,130,VALID,0.520898,
2003-09-01, 03:22:00,VALID,917.819,VALID,0,VALID,99.7815,VALID,-0.0169808,VALID,17.1268,VALID,130,VALID,0.535846,
2003-09-01, 03:23:00,VALID,917.805,VALID,0,VALID,99.854,VALID,-0.0339617,VALID,17.1658,VALID,131,VALID,0.542101,
2003-09-01, 03:24:00,VALID,917.77,VALID,0,VALID,99.737,VALID,0,VALID,17.1752,VALID,131,VALID,0.143555,
2003-09-01, 03:25:00,VALID,917.761,VALID,0,VALID,99.634,VALID,0,VALID,17.149,VALID,131,VALID,0,
2003-09-01, 03:26:00,VALID,917.754,VALID,0,VALID,99.5183,VALID,0.0169808,VALID,17.1165,VALID,131,VALID,0,
2003-09-01, 03:27:00,VALID,917.743,VALID,0,VALID,99.3924,VALID,0.0169808,VALID,17.0807,VALID,131,VALID,0,
2003-09-01, 03:28:00,VALID,917.752,VALID,0,VALID,99.3683,VALID,0.0169808,VALID,17.0289,VALID,131,VALID,0,
2003-09-01, 03:29:00,VALID,917.765,VALID,0,VALID,99.3708,VALID,0.0339617,VALID,17.0063,VALID,131,VALID,0.272569,
2003-09-01, 03:30:00,VALID,917.771,VALID,0,VALID,99.573,VALID,0,VALID,17.0164,VALID,131,VALID,0.566992,
2003-09-01, 03:31:00,VALID,917.785,VALID,0,VALID,99.7408,VALID,0.0339617,VALID,17.0579,VALID,131,VALID,0.498621,
2003-09-01, 03:32:00,VALID,917.776,VALID,0,VALID,99.7879,VALID,0.0509425,VALID,17.0872,VALID,143,VALID,0.654948,
2003-09-01, 03:33:00,VALID,917.786,VALID,0,VALID,99.8756,VALID,0.0169808,VALID,17.1223,VALID,151,VALID,0.667188,
2003-09-01, 03:34:00,VALID,917.794,VALID,0,VALID,99.8795,VALID,0.0339617,VALID,17.1479,VALID,140,VALID,0.484145,
2003-09-01, 03:35:00,VALID,917.78,VALID,0,VALID,99.7281,VALID,0.0509425,VALID,17.1449,VALID,133,VALID,0.229601,
2003-09-01, 03:36:00,VALID,917.781,VALID,0,VALID,99.6785,VALID,0.0509425,VALID,17.1255,VALID,139,VALID,0.519922,
2003-09-01, 03:37:00,VALID,917.763,VALID,0,VALID,99.8082,VALID,0.0679233,VALID,17.132,VALID,141,VALID,0.742188,